Location: Brabourne
(51.1333°N, 1.0000°E)
Time: 06:54:10
(UTC+00:00)

USA 215 - Pass Details

Date: 20 June 2021
Orbit: 1100 x 1107 km, 123.0° (Epoch: 22 June)

Event Time Altitude Azimuth Distance (km) Brightness Sun altitude
Rises 02:19:59 0° 77° (ENE) 3,921 6.9 -9.1°
Reaches altitude 10° 02:22:31 10° 73° (ENE) 2,963 6.3 -8.9°
Maximum altitude 02:28:50 54° 359° (N) 1,323 4.1 -8.3°
Drops below altitude 10° 02:35:08 10° 284° (WNW) 2,962 5.3 -7.8°
Sets 02:37:40 0° 280° (W) 3,919 5.9 -7.5°
